This is the latest recevied weather packets stored in our database for station/object SP1BMW-13. If no packets are shown the sender has not sent any weather packets the latest 10 day(s).
| Time | Temp. | Humidity | Pressure | Rain* | Wind** | Luminosity | Snow |
|---|---|---|---|---|---|---|---|
| 1777529161 | 6.67° C | 69% | 1030.9 hPa | 0 mm | 0 m/s | 132 W/m² | - |
| 1777529101 | 6.67° C | 69% | 1030.9 hPa | 0 mm | 0 m/s | 132 W/m² | - |
| 1777529041 | 6.67° C | 68% | 1031 hPa | 0 mm | 0.45 m/s, 278° | 132 W/m² | - |
| 1777528985 | 6.67° C | 68% | 1031 hPa | 0 mm | 0 m/s | 133 W/m² | - |
| 1777528922 | 6.11° C | 69% | 1031.1 hPa | 0 mm | 0 m/s | 135 W/m² | - |
| 1777528861 | 6.11° C | 68% | 1030.8 hPa | 0 mm | 0 m/s | 135 W/m² | - |
| 1777528802 | 6.11° C | 68% | 1031.1 hPa | 0 mm | 0 m/s | 135 W/m² | - |
| 1777528741 | 6.11° C | 69% | 1031 hPa | 0 mm | 0 m/s | 133 W/m² | - |
| 1777528681 | 6.11° C | 70% | 1031.1 hPa | 0 mm | 0 m/s | 131 W/m² | - |
| 1777528621 | 6.11° C | 69% | 1031.1 hPa | 0 mm | 0.45 m/s, 259° | 130 W/m² | - |
| 1777528561 | 6.11° C | 70% | 1031.2 hPa | 0 mm | 0.45 m/s, 259° | 130 W/m² | - |
| 1777528501 | 6.11° C | 71% | 1031.1 hPa | 0 mm | 0 m/s | 131 W/m² | - |
| 1777528441 | 6.11° C | 72% | 1031 hPa | 0 mm | 0 m/s | 133 W/m² | - |
| 1777528381 | 6.11° C | 72% | 1031 hPa | 0 mm | 0.45 m/s, 291° | 133 W/m² | - |
| 1777528321 | 6.11° C | 72% | 1031.2 hPa | 0 mm | 0 m/s | 131 W/m² | - |
| 1777528261 | 5.56° C | 71% | 1030.9 hPa | 0 mm | 0 m/s | 128 W/m² | - |
| 1777528201 | 5.56° C | 72% | 1031.1 hPa | 0 mm | 0 m/s | 126 W/m² | - |
| 1777528141 | 5.56° C | 73% | 1031.2 hPa | 0 mm | 0 m/s | 124 W/m² | - |
| 1777528081 | 5.56° C | 73% | 1031 hPa | 0 mm | 0 m/s | 124 W/m² | - |
| 1777528021 | 5.56° C | 75% | 1031.1 hPa | 0 mm | 0 m/s | 121 W/m² | - |
| 1777527961 | 5.56° C | 74% | 1031.1 hPa | 0 mm | 0 m/s | 117 W/m² | - |
| 1777527901 | 5.56° C | 74% | 1031 hPa | 0 mm | 0 m/s | 110 W/m² | - |
| 1777527840 | 5° C | 74% | 1031 hPa | 0 mm | 0 m/s | 103 W/m² | - |
| 1777527780 | 5° C | 75% | 1031 hPa | 0 mm | 0 m/s | 100 W/m² | - |
| 1777527721 | 5° C | 75% | 1031 hPa | 0 mm | 0 m/s | 100 W/m² | - |
* Rain latest hour (hover to see other rain measurements)
** Current wind speed in m/s (hover to see current wind gust speed)